Location: La Trinit�
(48.1620°N, 3.4512°W)
Time: 08:14:20
(UTC+00:00)

SL-8 Rocket - Pass Details

Date: 08 May 2021
Orbit: 958 x 990 km, 82.9° (Epoch: 13 June)

Event Time Altitude Azimuth Distance (km) Brightness Sun altitude
Rises 23:00:46 0° 352° (N) 3,715 8.5 -22.7°
Reaches altitude 10° 23:03:19 10° 355° (N) 2,763 7.4 -22.8°
Maximum altitude 23:09:40 70° 79° (E) 1,053 4.1 -23.1°
Enters shadow 23:11:34 46° 146° (SE) 1,304 4.2 -23.2°
